{"data":{"norad_id":60023,"epoch":"2026-05-25T02:38:28.929120Z","epoch_age_seconds":69002,"freshness":"FRESH","line1":"1 60023U 24111H   26145.11005705  .00000033  00000+0  13257-4 0  9994","line2":"2 60023  53.1606  80.6753 0001236  86.4992 273.6150 15.30194587110743","mean_motion":15.30194587,"eccentricity":0.0001236,"inclination_deg":53.1606,"raan_deg":80.6753,"arg_perigee_deg":86.4992,"mean_anomaly_deg":273.615,"bstar":1.3257e-5,"rev_number":11074,"period_min":94.105678600208,"perigee_km":474.38415539583,"apogee_km":476.07830802271,"semimajor_km":6853.3682317093,"source":"CELESTRAK","updated_at":"2026-05-25T13:38:19.132333Z"}}